Flag for Austria Weather past 2 weeks in Graz, Styria, Austria

Now
57 °F

Broken clouds.


Feels Like: 56 °F
Forecast: 54 / 61 °F
Wind: 6 mph from Northwest

Location: Graz-Thalerhof-Flughafen

Current Time: Sep 1, 2014 at 1:52:12 PM

Latest Report: Sep 1, 2014 at 1:20 PM


Visibility: N/A

Pressure: 29.89 "Hg

Humidity: 82%

Dew point: 52 °F

Location of GrazLocation

Historic Weather in Graz — Graph

°F

Graz temperature yesterday

Maximum temperature yesterday: 72 °F (at 4:50 PM)
Minimum temperature yesterday: 59 °F (at 9:20 PM)
Average temperature yesterday: 64 °F

Past Weeks' High & Low Weather Summary

 TemperatureHumidityPressure
High77 °F (Aug 27, 2:20 PM)100% (Aug 18, 2:50 AM)30.15 "Hg (Aug 18, 2:50 AM)
Low46 °F (Aug 28, 5:50 AM)38% (Aug 17, 2:20 PM)29.77 "Hg (Aug 26, 3:50 PM)
Average61 °F81%29.99 "Hg
* Reported Aug 17 12:20 PM — Sep 1 12:20 PM, Graz, Weather by CustomWeather, © 2014

Note: Actual official high and low records may vary slightly from our data, if they occured in-between our weather recording intervals... More about our weather records

Advertising

Graz weather history for previous 24 hours

 ConditionsComfort  
Time TempWeatherWind HumidityBarometerVisibility
12:20 PM
Sep 1
55 °FLight rain. More clouds than sun.7 mph88%29.89 "HgN/A
11:50 AM55 °FLight rain. More clouds than sun.6 mph88%29.89 "HgN/A
11:20 AM55 °FLight rain. More clouds than sun.7 mph88%29.89 "HgN/A
10:50 AM54 °FLight rain. More clouds than sun.6 mph94%29.89 "HgN/A
10:20 AM54 °FLight rain. More clouds than sun.7 mph94%29.86 "HgN/A
9:50 AM54 °FLight rain. More clouds than sun.7 mph88%29.86 "HgN/A
9:20 AM54 °FLight rain. More clouds than sun.7 mph88%29.86 "HgN/A
8:50 AM54 °FLight rain. More clouds than sun.8 mph88%29.86 "HgN/A
8:20 AM54 °FLight rain. More clouds than sun.7 mph88%29.86 "HgN/A
7:50 AM54 °FLight rain. More clouds than sun.6 mph88%29.86 "HgN/A
7:20 AM54 °FLight rain. More clouds than sun.6 mph88%29.86 "HgN/A
6:50 AM54 °FRain. Mostly cloudy.7 mph88%29.86 "HgN/A
6:20 AM52 °FRain. Mostly cloudy.6 mph94%29.86 "HgN/A
5:50 AM54 °FRain. Mostly cloudy.6 mph88%29.86 "HgN/A
5:20 AM54 °FRain. Overcast.6 mph94%29.86 "HgN/A
4:50 AM54 °FRain. Overcast.5 mph94%29.86 "HgN/A
4:20 AM54 °FRain. Passing clouds.6 mph88%29.86 "HgN/A
3:50 AM55 °FRain. Passing clouds.8 mph82%29.86 "HgN/A
3:20 AM55 °FRain. Passing clouds.10 mph82%29.86 "HgN/A
2:50 AM55 °FRain. Passing clouds.9 mph82%29.86 "HgN/A
2:20 AM57 °FLight rain. Passing clouds.7 mph82%29.86 "HgN/A
1:50 AM57 °FLight rain. Passing clouds.10 mph82%29.83 "HgN/A
1:20 AM59 °FRain. Overcast.6 mph88%29.86 "HgN/A
12:50 AM59 °FRain showers. Overcast.7 mph94%29.86 "HgN/A
12:20 AM59 °FRain showers. Passing clouds.5 mph94%29.86 "HgN/A
11:50 PM
Aug 31
59 °FLight rain. Partly cloudy.7 mph94%29.86 "HgN/A
11:20 PM59 °FRain showers. Partly cloudy.7 mph100%29.86 "HgN/A
10:50 PM59 °FSprinkles. Passing clouds.6 mph94%29.86 "HgN/A
10:20 PM59 °FRain showers. Passing clouds.5 mph94%29.86 "Hg5 mi
9:50 PM59 °FSprinkles. Passing clouds.5 mph94%29.89 "HgN/A
9:20 PM59 °FSprinkles. Passing clouds.8 mph94%29.86 "HgN/A
8:50 PM61 °FThunderstorms. Partly cloudy.12 mph88%29.86 "Hg5 mi
8:20 PM63 °FThunderstorms. Broken clouds.12 mph94%29.86 "HgN/A
7:50 PM64 °FThunderstorms. Broken clouds.9 mph94%29.86 "Hg4 mi
7:20 PM64 °FThunderstorms. Broken clouds.12 mph94%29.86 "Hg3 mi
6:50 PM66 °FThunderstorms. Broken clouds.7 mph88%29.86 "HgN/A
6:20 PM68 °FThunderstorms. Broken clouds.5 mph78%29.86 "HgN/A
5:50 PM70 °FBroken clouds.3 mph73%29.86 "HgN/A
5:20 PM70 °FBroken clouds.5 mph69%29.86 "HgN/A
4:50 PM72 °FBroken clouds.3 mph69%29.89 "HgN/A
4:20 PM70 °FBroken clouds.3 mph69%29.89 "HgN/A
3:50 PM70 °FBroken clouds.3 mph73%29.89 "HgN/A
3:20 PM70 °FBroken clouds.2 mph73%29.92 "HgN/A
2:50 PM70 °FBroken clouds.3 mph78%29.95 "HgN/A
2:20 PM68 °FBroken clouds.3 mph78%29.95 "HgN/A
1:50 PM68 °FBroken clouds.2 mph78%29.95 "HgN/A
1:20 PM66 °FBroken clouds.3 mph83%29.98 "HgN/A
Weather by CustomWeather, © 2014

See weather overviewHow to use our weather pages